Time,TemperatureF,DewpointF,PressureIn,WindDirection,WindDirectionDegrees,WindSpeedMPH,WindSpeedGustMPH,Humidity,HourlyPrecipIn,Conditions,Clouds,dailyrainin,SoftwareType,DateUTC
2013-02-05 00:01:00,46.0,41.0,29.92,SE,140,0.0,-999.0,83,-99.99,,,-99.99,,2013-02-05 08:01:00,
2013-02-05 00:11:00,46.0,41.0,29.92,SE,140,0.0,-999.0,83,-99.99,,,-99.99,,2013-02-05 08:11:00,
2013-02-05 00:21:00,46.0,41.0,29.92,SE,140,0.0,-999.0,83,-99.99,,,-99.99,,2013-02-05 08:21:00,
2013-02-05 00:31:00,46.0,41.0,29.92,SE,140,0.0,-999.0,83,-99.99,,,-99.99,,2013-02-05 08:31:00,
2013-02-05 00:41:00,46.0,41.0,29.92,SE,140,0.0,-999.0,83,-99.99,,,-99.99,,2013-02-05 08:41:00,
2013-02-05 00:52:00,46.0,41.0,29.92,SE,140,0.0,-999.0,83,-99.99,,,-99.99,,2013-02-05 08:52:00,
2013-02-05 01:02:00,46.0,41.0,29.92,SE,140,0.0,-999.0,82,-99.99,,,-99.99,,2013-02-05 09:02:00,
2013-02-05 01:11:00,45.0,40.0,29.92,SE,140,0.0,-999.0,83,-99.99,,,-99.99,,2013-02-05 09:11:00,
2013-02-05 01:21:00,45.0,40.0,29.92,SE,140,0.0,-999.0,83,-99.99,,,-99.99,,2013-02-05 09:21:00,
2013-02-05 01:31:00,45.0,40.0,29.91,SE,140,0.0,-999.0,83,-99.99,,,-99.99,,2013-02-05 09:31:00,
2013-02-05 01:41:00,45.0,40.0,29.91,SE,140,0.0,-999.0,83,-99.99,,,-99.99,,2013-02-05 09:41:00,
2013-02-05 01:52:00,45.0,40.0,29.91,SE,140,0.0,-999.0,83,-99.99,,,-99.99,,2013-02-05 09:52:00,
2013-02-05 02:01:00,44.0,39.0,29.91,SE,140,0.0,-999.0,83,-99.99,,,-99.99,,2013-02-05 10:01:00,
2013-02-05 02:11:00,44.0,39.0,29.90,SE,140,0.0,-999.0,84,-99.99,,,-99.99,,2013-02-05 10:11:00,
2013-02-05 02:21:00,44.0,39.0,29.90,SE,140,0.0,-999.0,84,-99.99,,,-99.99,,2013-02-05 10:21:00,
2013-02-05 02:31:00,44.0,39.0,29.90,SE,140,0.0,-999.0,84,-99.99,,,-99.99,,2013-02-05 10:31:00,
2013-02-05 02:42:00,44.0,39.0,29.90,SE,140,0.0,-999.0,84,-99.99,,,-99.99,,2013-02-05 10:42:00,
2013-02-05 02:52:00,44.0,40.0,29.90,SE,140,0.0,-999.0,85,-99.99,,,-99.99,,2013-02-05 10:52:00,
2013-02-05 03:01:00,43.0,39.0,29.89,SE,140,0.0,-999.0,85,-99.99,,,-99.99,,2013-02-05 11:01:00,
2013-02-05 03:11:00,43.0,39.0,29.89,SE,140,0.0,-999.0,85,-99.99,,,-99.99,,2013-02-05 11:11:00,
2013-02-05 03:21:00,43.0,38.0,29.89,SE,140,0.0,-999.0,84,-99.99,,,-99.99,,2013-02-05 11:21:00,
2013-02-05 03:31:00,43.0,38.0,29.89,SE,140,0.0,-999.0,84,-99.99,,,-99.99,,2013-02-05 11:31:00,
2013-02-05 03:41:00,43.0,38.0,29.89,SE,140,0.0,-999.0,84,-99.99,,,-99.99,,2013-02-05 11:41:00,
2013-02-05 03:52:00,42.0,38.0,29.89,SE,140,0.0,-999.0,85,-99.99,,,-99.99,,2013-02-05 11:52:00,
2013-02-05 04:01:00,42.0,38.0,29.88,SE,140,0.0,-999.0,86,-99.99,,,-99.99,,2013-02-05 12:01:00,
2013-02-05 04:12:00,42.0,38.0,29.88,SE,140,0.0,-999.0,86,-99.99,,,-99.99,,2013-02-05 12:12:00,
2013-02-05 04:21:00,42.0,38.0,29.89,SE,140,0.0,-999.0,87,-99.99,,,-99.99,,2013-02-05 12:21:00,
2013-02-05 04:31:00,42.0,38.0,29.89,SE,140,0.0,-999.0,86,-99.99,,,-99.99,,2013-02-05 12:31:00,
2013-02-05 04:41:00,42.0,38.0,29.89,SE,140,0.0,-999.0,86,-99.99,,,-99.99,,2013-02-05 12:41:00,
2013-02-05 04:52:00,41.0,37.0,29.89,SE,140,0.0,-999.0,87,-99.99,,,-99.99,,2013-02-05 12:52:00,
2013-02-05 05:01:00,41.0,37.0,29.88,SE,140,0.0,-999.0,87,-99.99,,,-99.99,,2013-02-05 13:01:00,
2013-02-05 05:11:00,41.0,37.0,29.88,SE,140,0.0,-999.0,87,-99.99,,,-99.99,,2013-02-05 13:11:00,
2013-02-05 05:21:00,41.0,37.0,29.88,SE,140,0.0,-999.0,86,-99.99,,,-99.99,,2013-02-05 13:21:00,
2013-02-05 05:31:00,41.0,37.0,29.87,SE,140,0.0,-999.0,87,-99.99,,,-99.99,,2013-02-05 13:31:00,
2013-02-05 05:41:00,41.0,37.0,29.87,SE,140,0.0,-999.0,87,-99.99,,,-99.99,,2013-02-05 13:41:00,
2013-02-05 05:52:00,41.0,38.0,29.88,ESE,103,0.0,-999.0,89,-99.99,,,-99.99,,2013-02-05 13:52:00,
2013-02-05 06:01:00,41.0,38.0,29.89,ESE,103,0.0,-999.0,89,-99.99,,,-99.99,,2013-02-05 14:01:00,
2013-02-05 06:12:00,41.0,38.0,29.89,ESE,103,0.0,-999.0,89,-99.99,,,-99.99,,2013-02-05 14:12:00,
2013-02-05 06:21:00,41.0,38.0,29.90,ESE,103,0.0,-999.0,88,-99.99,,,-99.99,,2013-02-05 14:21:00,
2013-02-05 06:31:00,40.0,36.0,29.92,ESE,103,0.0,-999.0,87,-99.99,,,-99.99,,2013-02-05 14:31:00,
2013-02-05 06:41:00,40.0,36.0,29.92,ESE,103,0.0,-999.0,87,-99.99,,,-99.99,,2013-02-05 14:41:00,
2013-02-05 06:52:00,40.0,37.0,29.93,ESE,103,0.0,-999.0,88,-99.99,,,-99.99,,2013-02-05 14:52:00,
2013-02-05 07:01:00,40.0,37.0,29.93,ESE,103,0.0,-999.0,89,-99.99,,,-99.99,,2013-02-05 15:01:00,
2013-02-05 07:11:00,40.0,37.0,29.93,ESE,103,0.0,-999.0,89,-99.99,,,-99.99,,2013-02-05 15:11:00,
2013-02-05 07:21:00,41.0,38.0,29.93,West,278,0.0,-999.0,89,-99.99,,,-99.99,,2013-02-05 15:21:00,
2013-02-05 07:32:00,41.0,37.0,29.93,West,278,0.0,-999.0,86,-99.99,,,-99.99,,2013-02-05 15:32:00,
2013-02-05 07:41:00,41.0,37.0,29.93,West,278,0.0,-999.0,86,-99.99,,,-99.99,,2013-02-05 15:41:00,
2013-02-05 07:52:00,42.0,38.0,29.93,West,278,0.0,-999.0,85,-99.99,,,-99.99,,2013-02-05 15:52:00,
2013-02-05 08:01:00,43.0,39.0,29.94,West,278,0.0,-999.0,85,-99.99,,,-99.99,,2013-02-05 16:01:00,
2013-02-05 08:11:00,43.0,39.0,29.94,West,278,0.0,-999.0,85,-99.99,,,-99.99,,2013-02-05 16:11:00,
2013-02-05 08:22:00,43.0,39.0,29.94,West,278,0.0,-999.0,85,-99.99,,,-99.99,,2013-02-05 16:22:00,
2013-02-05 08:32:00,44.0,40.0,29.95,West,278,0.0,-999.0,85,-99.99,,,-99.99,,2013-02-05 16:32:00,
2013-02-05 08:41:00,44.0,40.0,29.95,West,278,0.0,-999.0,85,-99.99,,,-99.99,,2013-02-05 16:41:00,
2013-02-05 08:52:00,46.0,42.0,29.95,West,278,0.0,-999.0,86,-99.99,,,-99.99,,2013-02-05 16:52:00,
2013-02-05 09:01:00,48.0,44.0,29.93,West,278,0.0,-999.0,87,-99.99,,,-99.99,,2013-02-05 17:01:00,
2013-02-05 09:11:00,48.0,44.0,29.93,West,278,0.0,-999.0,87,-99.99,,,-99.99,,2013-02-05 17:11:00,
2013-02-05 09:21:00,48.0,44.0,29.93,West,278,0.0,-999.0,87,-99.99,,,-99.99,,2013-02-05 17:21:00,
2013-02-05 09:32:00,53.0,47.0,29.95,SE,127,0.0,-999.0,79,-99.99,,,-99.99,,2013-02-05 17:32:00,
2013-02-05 09:41:00,53.0,47.0,29.95,SE,127,0.0,-999.0,79,-99.99,,,-99.99,,2013-02-05 17:41:00,
2013-02-05 09:52:00,55.0,47.0,29.96,NE,56,0.0,-999.0,75,-99.99,,,-99.99,,2013-02-05 17:52:00,
2013-02-05 10:01:00,56.0,47.0,29.95,ENE,69,0.0,-999.0,73,-99.99,,,-99.99,,2013-02-05 18:01:00,
2013-02-05 10:11:00,56.0,47.0,29.95,ENE,69,0.0,-999.0,73,-99.99,,,-99.99,,2013-02-05 18:11:00,
2013-02-05 10:21:00,57.0,47.0,29.96,ENE,77,0.0,-999.0,69,-99.99,,,-99.99,,2013-02-05 18:21:00,
2013-02-05 10:31:00,58.0,48.0,29.96,NE,42,0.0,-999.0,69,-99.99,,,-99.99,,2013-02-05 18:31:00,
2013-02-05 10:42:00,58.0,48.0,29.96,NE,42,0.0,-999.0,69,-99.99,,,-99.99,,2013-02-05 18:42:00,
2013-02-05 10:52:00,58.0,48.0,29.96,ESE,116,0.0,-999.0,69,-99.99,,,-99.99,,2013-02-05 18:52:00,
2013-02-05 11:01:00,59.0,48.0,29.95,ESE,105,0.0,-999.0,66,-99.99,,,-99.99,,2013-02-05 19:01:00,
2013-02-05 11:11:00,59.0,48.0,29.95,ESE,105,0.0,-999.0,66,-99.99,,,-99.99,,2013-02-05 19:11:00,
2013-02-05 11:21:00,59.0,48.0,29.94,NE,36,0.0,-999.0,66,-99.99,,,-99.99,,2013-02-05 19:21:00,
2013-02-05 11:31:00,60.0,48.0,29.93,NNE,26,1.0,-999.0,65,-99.99,,,-99.99,,2013-02-05 19:31:00,
2013-02-05 11:42:00,60.0,48.0,29.93,NNE,26,1.0,-999.0,65,-99.99,,,-99.99,,2013-02-05 19:42:00,
2013-02-05 11:52:00,60.0,49.0,29.93,NE,53,0.0,-999.0,66,-99.99,,,-99.99,,2013-02-05 19:52:00,
2013-02-05 12:01:00,60.0,49.0,29.93,ENE,65,0.0,-999.0,67,-99.99,,,-99.99,,2013-02-05 20:01:00,
2013-02-05 12:11:00,60.0,49.0,29.93,ENE,65,0.0,-999.0,67,-99.99,,,-99.99,,2013-02-05 20:11:00,
2013-02-05 12:21:00,60.0,49.0,29.93,East,92,0.0,-999.0,66,-99.99,,,-99.99,,2013-02-05 20:21:00,
2013-02-05 12:31:00,60.0,49.0,29.93,East,92,0.0,-999.0,66,-99.99,,,-99.99,,2013-02-05 20:31:00,
2013-02-05 12:41:00,60.0,49.0,29.93,East,92,0.0,-999.0,66,-99.99,,,-99.99,,2013-02-05 20:41:00,
2013-02-05 12:52:00,58.0,48.0,29.91,NE,50,0.0,-999.0,69,-99.99,,,-99.99,,2013-02-05 20:52:00,
2013-02-05 13:01:00,58.0,48.0,29.90,ENE,71,0.0,-999.0,70,-99.99,,,-99.99,,2013-02-05 21:01:00,
2013-02-05 13:11:00,58.0,48.0,29.90,ENE,71,0.0,-999.0,70,-99.99,,,-99.99,,2013-02-05 21:11:00,
2013-02-05 13:21:00,59.0,49.0,29.89,ENE,68,0.0,-999.0,70,-99.99,,,-99.99,,2013-02-05 21:21:00,
2013-02-05 13:31:00,60.0,49.0,29.87,East,93,0.0,-999.0,68,-99.99,,,-99.99,,2013-02-05 21:31:00,
2013-02-05 13:41:00,60.0,49.0,29.87,East,93,0.0,-999.0,68,-99.99,,,-99.99,,2013-02-05 21:41:00,
2013-02-05 13:52:00,61.0,50.0,29.86,WNW,302,0.0,-999.0,66,-99.99,,,-99.99,,2013-02-05 21:52:00,
2013-02-05 14:01:00,61.0,50.0,29.86,WNW,302,0.0,-999.0,66,-99.99,,,-99.99,,2013-02-05 22:01:00,
2013-02-05 14:11:00,61.0,50.0,29.86,WNW,302,0.0,-999.0,66,-99.99,,,-99.99,,2013-02-05 22:11:00,
2013-02-05 14:21:00,63.0,50.0,29.85,NE,50,0.0,-999.0,63,-99.99,,,-99.99,,2013-02-05 22:21:00,
2013-02-05 14:31:00,63.0,50.0,29.86,ENE,72,1.0,-999.0,63,-99.99,,,-99.99,,2013-02-05 22:31:00,
2013-02-05 14:42:00,63.0,50.0,29.86,ENE,72,1.0,-999.0,63,-99.99,,,-99.99,,2013-02-05 22:42:00,
2013-02-05 14:52:00,63.0,50.0,29.86,ENE,72,1.0,-999.0,63,-99.99,,,-99.99,,2013-02-05 22:52:00,
2013-02-05 15:01:00,59.0,49.0,29.86,ESE,111,0.0,-999.0,69,-99.99,,,-99.99,,2013-02-05 23:01:00,
2013-02-05 15:11:00,59.0,49.0,29.86,ESE,111,0.0,-999.0,69,-99.99,,,-99.99,,2013-02-05 23:11:00,
2013-02-05 15:21:00,58.0,49.0,29.87,ENE,61,0.0,-999.0,71,-99.99,,,-99.99,,2013-02-05 23:21:00,
2013-02-05 15:32:00,58.0,49.0,29.87,ENE,61,0.0,-999.0,71,-99.99,,,-99.99,,2013-02-05 23:32:00,
2013-02-05 15:41:00,58.0,49.0,29.87,ENE,61,0.0,-999.0,71,-99.99,,,-99.99,,2013-02-05 23:41:00,
2013-02-05 15:52:00,56.0,49.0,29.87,ESE,111,1.0,-999.0,76,-99.99,,,-99.99,,2013-02-05 23:52:00,
2013-02-05 16:01:00,56.0,50.0,29.87,East,99,0.0,-999.0,79,-99.99,,,-99.99,,2013-02-06 00:01:00,
2013-02-05 16:11:00,56.0,50.0,29.87,East,99,0.0,-999.0,79,-99.99,,,-99.99,,2013-02-06 00:11:00,
2013-02-05 16:21:00,55.0,49.0,29.87,East,96,0.0,-999.0,80,-99.99,,,-99.99,,2013-02-06 00:21:00,
2013-02-05 16:31:00,55.0,49.0,29.87,East,95,0.0,-999.0,80,-99.99,,,-99.99,,2013-02-06 00:31:00,
2013-02-05 16:41:00,55.0,49.0,29.87,East,95,0.0,-999.0,80,-99.99,,,-99.99,,2013-02-06 00:41:00,
2013-02-05 16:52:00,54.0,48.0,29.88,ESE,123,0.0,-999.0,81,-99.99,,,-99.99,,2013-02-06 00:52:00,
2013-02-05 17:01:00,54.0,48.0,29.88,ESE,115,0.0,-999.0,81,-99.99,,,-99.99,,2013-02-06 01:01:00,
2013-02-05 17:11:00,54.0,48.0,29.88,ESE,115,0.0,-999.0,81,-99.99,,,-99.99,,2013-02-06 01:11:00,
2013-02-05 17:21:00,54.0,48.0,29.88,NE,45,0.0,-999.0,81,-99.99,,,-99.99,,2013-02-06 01:21:00,
2013-02-05 17:31:00,54.0,49.0,29.88,ENE,76,0.0,-999.0,82,-99.99,,,-99.99,,2013-02-06 01:31:00,
2013-02-05 17:41:00,54.0,49.0,29.88,ENE,76,0.0,-999.0,82,-99.99,,,-99.99,,2013-02-06 01:41:00,
2013-02-05 17:52:00,53.0,48.0,29.87,ENE,76,0.0,-999.0,82,-99.99,,,-99.99,,2013-02-06 01:52:00,
2013-02-05 18:01:00,53.0,48.0,29.87,ENE,76,0.0,-999.0,83,-99.99,,,-99.99,,2013-02-06 02:01:00,
2013-02-05 18:11:00,53.0,48.0,29.87,ENE,76,0.0,-999.0,83,-99.99,,,-99.99,,2013-02-06 02:11:00,
2013-02-05 18:21:00,53.0,48.0,29.87,ENE,76,0.0,-999.0,83,-99.99,,,-99.99,,2013-02-06 02:21:00,
2013-02-05 18:31:00,53.0,48.0,29.88,ENE,76,0.0,-999.0,84,-99.99,,,-99.99,,2013-02-06 02:31:00,
2013-02-05 18:41:00,53.0,48.0,29.88,ENE,76,0.0,-999.0,84,-99.99,,,-99.99,,2013-02-06 02:41:00,
2013-02-05 18:52:00,53.0,48.0,29.88,ENE,76,0.0,-999.0,84,-99.99,,,-99.99,,2013-02-06 02:52:00,
2013-02-05 19:02:00,53.0,48.0,29.88,ENE,76,0.0,-999.0,84,-99.99,,,-99.99,,2013-02-06 03:02:00,
2013-02-05 19:11:00,53.0,48.0,29.88,ENE,76,0.0,-999.0,84,-99.99,,,-99.99,,2013-02-06 03:11:00,
2013-02-05 19:21:00,53.0,48.0,29.87,ENE,76,0.0,-999.0,84,-99.99,,,-99.99,,2013-02-06 03:21:00,
2013-02-05 19:31:00,53.0,49.0,29.88,ENE,76,0.0,-999.0,85,-99.99,,,-99.99,,2013-02-06 03:31:00,
2013-02-05 19:42:00,53.0,49.0,29.88,ENE,76,0.0,-999.0,85,-99.99,,,-99.99,,2013-02-06 03:42:00,
2013-02-05 19:52:00,53.0,49.0,29.89,ENE,76,0.0,-999.0,85,-99.99,,,-99.99,,2013-02-06 03:52:00,
2013-02-05 20:01:00,53.0,49.0,29.88,ENE,76,0.0,-999.0,85,-99.99,,,-99.99,,2013-02-06 04:01:00,
2013-02-05 20:11:00,53.0,49.0,29.88,ENE,76,0.0,-999.0,85,-99.99,,,-99.99,,2013-02-06 04:11:00,
2013-02-05 20:21:00,53.0,49.0,29.88,ENE,76,0.0,-999.0,86,-99.99,,,-99.99,,2013-02-06 04:21:00,
2013-02-05 20:31:00,53.0,49.0,29.88,ENE,76,0.0,-999.0,86,-99.99,,,-99.99,,2013-02-06 04:31:00,
2013-02-05 20:41:00,53.0,49.0,29.88,ENE,76,0.0,-999.0,86,-99.99,,,-99.99,,2013-02-06 04:41:00,
2013-02-05 20:52:00,52.0,48.0,29.89,ENE,76,0.0,-999.0,86,-99.99,,,-99.99,,2013-02-06 04:52:00,
2013-02-05 21:01:00,52.0,48.0,29.90,ENE,76,0.0,-999.0,86,-99.99,,,-99.99,,2013-02-06 05:01:00,
2013-02-05 21:11:00,52.0,48.0,29.90,ENE,76,0.0,-999.0,86,-99.99,,,-99.99,,2013-02-06 05:11:00,
2013-02-05 21:22:00,52.0,48.0,29.90,ENE,76,0.0,-999.0,87,-99.99,,,-99.99,,2013-02-06 05:22:00,
2013-02-05 21:31:00,52.0,49.0,29.90,ENE,76,0.0,-999.0,88,-99.99,,,-99.99,,2013-02-06 05:31:00,
2013-02-05 21:41:00,52.0,49.0,29.90,ENE,76,0.0,-999.0,88,-99.99,,,-99.99,,2013-02-06 05:41:00,
2013-02-05 21:53:00,52.0,49.0,29.90,ENE,76,0.0,-999.0,89,-99.99,,,-99.99,,2013-02-06 05:53:00,
2013-02-05 22:01:00,52.0,49.0,29.90,ENE,76,0.0,-999.0,89,-99.99,,,-99.99,,2013-02-06 06:01:00,
2013-02-05 22:11:00,52.0,49.0,29.90,ENE,76,0.0,-999.0,89,-99.99,,,-99.99,,2013-02-06 06:11:00,
2013-02-05 22:21:00,52.0,49.0,29.89,ENE,76,0.0,-999.0,90,-99.99,,,-99.99,,2013-02-06 06:21:00,
2013-02-05 22:31:00,52.0,49.0,29.89,ENE,76,0.0,-999.0,90,-99.99,,,-99.99,,2013-02-06 06:31:00,
2013-02-05 22:42:00,52.0,49.0,29.89,ENE,76,0.0,-999.0,90,-99.99,,,-99.99,,2013-02-06 06:42:00,
2013-02-05 22:52:00,52.0,49.0,29.90,ENE,76,0.0,-999.0,90,-99.99,,,-99.99,,2013-02-06 06:52:00,
2013-02-05 23:01:00,52.0,49.0,29.90,ENE,76,0.0,-999.0,91,-99.99,,,-99.99,,2013-02-06 07:01:00,
2013-02-05 23:11:00,52.0,49.0,29.90,ENE,76,0.0,-999.0,91,-99.99,,,-99.99,,2013-02-06 07:11:00,
2013-02-05 23:21:00,52.0,49.0,29.90,ENE,76,0.0,-999.0,91,-99.99,,,-99.99,,2013-02-06 07:21:00,
2013-02-05 23:32:00,52.0,49.0,29.89,ENE,76,0.0,-999.0,91,-99.99,,,-99.99,,2013-02-06 07:32:00,
2013-02-05 23:41:00,52.0,49.0,29.89,ENE,76,0.0,-999.0,91,-99.99,,,-99.99,,2013-02-06 07:41:00,
2013-02-05 23:52:00,52.0,49.0,29.88,ENE,76,0.0,-999.0,91,-99.99,,,-99.99,,2013-02-06 07:52:00,